Montrose, CO

7:12 AM MST on February 25, 2017 (GMT -0700)
Montrose Regional

Weather History for KMTJ - December, 2012

Change the Weather History Date:

Tuesday, December 4, 2012

  Actual Average Record
Temperature  
Mean Temperature 36 °F 30 °F  
Max Temperature 51 °F 41 °F 60 °F (1998)
Min Temperature 21 °F 18 °F -2 °F (2013)
Degree Days  
Heating Degree Days 29 36  
Month to date heating degree days 88 140  
Since 1 July heating degree days 1230 1561  
Cooling Degree Days 0 0  
Month to date cooling degree days 0 0  
Year to date cooling degree days 906 643  
Moisture  
Dew Point 17 °F    
Average Humidity 51    
Maximum Humidity 81    
Minimum Humidity 21    
Precipitation  
Precipitation 0.00 in 0.02 in 0.38 in (2013)
Month to date precipitation T 0.09  
Year to date precipitation 5.48 10.74  
Sea Level Pressure  
Sea Level Pressure 30.40 in    
Wind  
Wind Speed 6 mph (SE)    
Max Wind Speed 12 mph    
Max Gust Speed 13 mph    
Visibility 10 miles    
Events      
T = Trace of Precipitation, MM = Missing Value Source: NWS Daily Summary

Daily Weather History Graph

Daily Weather History Graph

Search for Another Location

Airport or City:

Trip Planner

Search our weather history database for the weather conditions in past years. The results will help you decide how hot, cold, wet, or windy it might be!

Date:

Astronomy

Dec. 04, 2012 Rise Set
Actual Time 7:13 AM MST 4:50 PM MST
Civil Twilight 6:44 AM MST 5:19 PM MST
Nautical Twilight 6:11 AM MST 5:52 PM MST
Astronomical Twilight 5:38 AM MST 6:24 PM MST
Moon 10:38 PM MST (12/4) 11:11 AM MST (12/4)
Length of Visible Light 10h 35m
Length of Day
9h 37m
Waning Gibbous, 69% of the Moon is Illuminated
Dec 4
Waning Gibbous
Dec 6
Last Quarter
Dec 13
New
Dec 19
First Quarter
Dec 28
Full

Hourly Weather History & Observations

Time (MST) Temp. Windchill Dew Point Humidity Pressure Visibility Wind Dir Wind Speed Gust Speed Precip Events Conditions
12:53 AM 28.9 °F 19.8 °F 23.0 °F 78% 30.31 in 10.0 mi SSE 10.4 mph - N/A   Clear
1:53 AM 28.0 °F 20.0 °F 21.9 °F 78% 30.32 in 10.0 mi SE 8.1 mph - N/A   Clear
2:53 AM 28.0 °F 20.8 °F 21.9 °F 78% 30.35 in 10.0 mi ESE 6.9 mph - N/A   Clear
3:53 AM 24.1 °F 18.2 °F 19.0 °F 81% 30.38 in 10.0 mi Variable 4.6 mph - N/A   Clear
4:53 AM 21.9 °F 14.5 °F 16.0 °F 78% 30.39 in 10.0 mi SSE 5.8 mph - N/A   Clear
5:53 AM 21.9 °F 12.5 °F 15.1 °F 75% 30.42 in 10.0 mi SSE 8.1 mph - N/A   Clear
6:53 AM 21.9 °F 13.4 °F 15.1 °F 75% 30.48 in 10.0 mi SE 6.9 mph - N/A   Clear
7:53 AM 26.1 °F 19.4 °F 16.0 °F 66% 30.51 in 10.0 mi SSE 5.8 mph - N/A   Clear
8:53 AM 30.9 °F 23.5 °F 16.0 °F 54% 30.50 in 10.0 mi SE 8.1 mph - N/A   Clear
9:53 AM 39.0 °F 35.7 °F 16.0 °F 39% 30.48 in 10.0 mi South 4.6 mph - N/A   Clear
10:53 AM 42.1 °F 40.2 °F 19.9 °F 41% 30.46 in 10.0 mi WNW 3.5 mph - N/A   Clear
11:53 AM 44.1 °F - 19.9 °F 38% 30.42 in 10.0 mi Calm Calm - N/A   Clear
12:53 PM 48.0 °F - 19.9 °F 33% 30.38 in 10.0 mi NNW 6.9 mph - N/A   Clear
1:53 PM 48.9 °F - 19.0 °F 31% 30.35 in 10.0 mi NW 5.8 mph - N/A   Clear
2:53 PM 50.0 °F - 12.0 °F 22% 30.35 in 10.0 mi Calm Calm - N/A   Mostly Cloudy
3:53 PM 50.0 °F - 15.1 °F 25% 30.35 in 10.0 mi Calm Calm - N/A   Clear
4:53 PM 46.0 °F 44.8 °F 17.1 °F 31% 30.39 in 6.0 mi NW 3.5 mph - N/A   Haze
5:53 PM 39.9 °F 35.8 °F 18.0 °F 41% 30.40 in 10.0 mi SE 5.8 mph - N/A   Clear
6:53 PM 36.0 °F 33.3 °F 17.1 °F 46% 30.45 in 10.0 mi South 3.5 mph - N/A   Clear
7:53 PM 34.0 °F 27.2 °F 17.1 °F 50% 30.45 in 10.0 mi ESE 8.1 mph - N/A   Partly Cloudy
8:53 PM 33.1 °F 26.9 °F 16.0 °F 50% 30.45 in 10.0 mi SSE 6.9 mph - N/A   Clear
9:53 PM 30.0 °F 22.4 °F 16.0 °F 56% 30.42 in 10.0 mi SE 8.1 mph - N/A   Clear
10:53 PM 32.0 °F 24.2 °F 15.1 °F 50% 30.36 in 10.0 mi SSE 9.2 mph - N/A   Clear
11:53 PM 36.0 °F 29.6 °F 15.1 °F 43% 30.33 in 10.0 mi ENE 8.1 mph - N/A   Clear